Location: Frydek-Mistek
(49.6830°N, 18.3330°E)
Time: 15:12:53
(UTC+02:00)

ISS - Pass Details

Date: 24 April 2026
Orbit: 414 x 424 km, 51.6° (Epoch: 18 May)

Event Time Altitude Azimuth Distance (km) Brightness Sun altitude
Exits shadow 03:57:40 28° 200° (SSW) 828 -2.8 -14.6°
Maximum altitude 03:58:57 41° 150° (SSE) 625 -3.0 -14.4°
Drops below altitude 10° 04:02:09 10° 79° (E) 1,506 0.0 -14.0°
Sets 04:04:19 0° 72° (ENE) 2,375 1.4 -13.7°
